www.pogodaiklimat.ru
ПОГОДА в Ионии
Время
(UTC), дата
11:15 11.11
11:16 11.11
11:35 11.11
11:36 11.11
11:55 11.11
12:15 11.11
12:35 11.11
12:36 11.11
12:55 11.11
12:56 11.11
13:15 11.11
13:35 11.11
13:36 11.11
13:55 11.11
13:56 11.11
14:15 11.11
14:35 11.11
14:36 11.11
14:55 11.11
15:15 11.11
15:16 11.11
15:35 11.11
15:55 11.11
16:15 11.11
16:35 11.11
16:55 11.11
17:15 11.11
17:35 11.11
17:36 11.11
17:55 11.11
17:56 11.11
18:15 11.11
18:35 11.11
18:36 11.11
18:55 11.11
18:56 11.11
19:15 11.11
19:35 11.11
19:55 11.11
20:15 11.11
20:35 11.11
20:55 11.11
21:15 11.11
21:35 11.11
21:55 11.11
21:56 11.11
22:15 11.11
22:35 11.11
Ветер
(напр.,м/с)
Видим. Явления Облачность Т
(С)
Тd
(С)
f
(%)
Тe
(С)
Тes
(С)
Комфортность P
(гПа)
Po
(гПа)
Тmin
(С)
Tmax
(С)
R
(мм)
R24
(мм)
S
(см)
С 4 2 км слабый снег 10/10 210 м -2.0 -3.1 92 -8 -8 991.7
С 4 2 км слабый снег 10/10 210 м -2.0 -3.1 92 -9 -9 991.7
С 4 2 км снег 10/10 210 м -2.5 -3.8 91 -9 -9 992.1
С 4 2 км снег 10/10 210 м -2.6 -3.8 91 -9 -9 992.1
С 5 1 км снег 10/10 270 м -2.7 -4.1 90 -10 -10 992.1
С 6 800 м снег 10/10 270 м -3.0 -4.2 91 -11 -11 992.1
С 3 1 км слабый снег 10/10 270 м -3.0 -4.2 91 -8 -8 992.1
С 3 1 км слабый снег 10/10 270 м -3.0 -4.1 92 -8 -8 992.1
С 4 1 км слабый снег 10/10 270 м -3.0 -4.3 91 -10 -10 992.4
С 4 1 км слабый снег 10/10 270 м -3.1 -4.3 91 -10 -10 992.4
С 4 800 м слабый снег 10/10 270 м -3.1 -4.5 90 -9 -9 992.4
С 5
{7}
800 м слабый снег 10/10 270 м -3.2 -4.6 90 -11 -11 992.4
С 6
{7}
800 м слабый снег 10/10 270 м -3.2 -4.6 90 -11 -11 992.4
С 4 800 м снег 10/10 270 м -3.2 -4.5 91 -10 -10 992.1
С 4 800 м снег 10/10 270 м -3.2 -4.5 91 -10 -10 992.4
С 5
{7}
1 км слабый снег 10/10 270 м -3.1 -4.5 90 -11 -11 992.1
С 4 1 км слабый снег 10/10 330 м -3.1 -4.6 89 -10 -10 992.1
С 4 1 км слабый снег 10/10 210 м -3.1 -4.7 89 -10 -10 992.1
С 6
{8}
2 км слабый снег 10/10 240 м -3.0 -4.6 89 -11 -11 992.1
С 4 1 км слабый снег 10/10 240 м -3.0 -4.6 89 -9 -9 992.1
С 4 1 км слабый снег 10/10 240 м -3.0 -4.5 89 -9 -9 992.1
С 3 2 км слабый снег 10/10 240 м -2.8 -4.4 89 -9 -9 992.1
С 4
{9}
2 км слабый снег 10/10 240 м -3.1 -5.4 84 -10 -10 992.1
С 6
{8}
2 км слабый снег 10/10 300 м -3.1 -5.2 85 -11 -11 991.7
С 4
{8}
1 км слабый снег 10/10 150 м -3.3 -5.3 86 -10 -10 991.7
С 5 2 км слабый снег 10/10 240 м -3.2 -5.0 87 -11 -11 991.4 -3.3 -1.5
С 6
{9}
2 км слабый снег 10/10 240 м -3.5 -5.6 85 -11 -11 991.1
С 6
{9}
2 км слабый снег 10/10 240 м -3.5 -5.5 86 -12 -12 991.1
С 6 2 км слабый снег 10/10 240 м -3.5 -5.5 86 -11 -11 991.1
С 4 2 км слабый снег 10/10 420 м -3.4 -5.4 86 -10 -10 990.8
С 4 2 км слабый снег 10/10 420 м -3.4 -5.4 86 -10 -10 990.8
С 3 3 км слабый снег 10/10 270 м -3.3 -5.2 87 -9 -9 990.8
С 4 4 км слабый снег 10/10 270 м -3.3 -5.4 85 -10 -10 990.4
С 4 4 км слабый снег 10/10 270 м -3.3 -5.4 85 -10 -10 990.4
С 3 2 км слабый снег 10/10 330 м -3.3 -5.4 85 -9 -9 990.4
С 3 2 км слабый снег 10/10 330 м -3.3 -5.3 86 -9 -9 990.4
С 3 2 км слабый снег 10/10 330 м -3.2 -5.0 87 -9 -9 990.4
С 4 1 км слабый снег 10/10 330 м -3.3 -5.0 88 -10 -10 990.8
С 4 2 км слабый снег 10/10 330 м -3.4 -5.0 89 -10 -10 991.1
С 6 5 км слабый снег 10/10 330 м -3.5 -5.5 86 -11 -11 991.4
С 3 4 км слабый снег 10/10 390 м -3.5 -5.5 86 -9 -9 991.1
С 4 11 км слабый снег 10/10 390 м -3.5 -5.5 86 -10 -10 991.1
С 4
{8}
16 км 8/8 390 м -3.6 -6.4 81 -11 -11 991.1
С 5
{7}
16 км слабый снег 8/8 390 м -4.0 -6.7 81 -12 -12 991.4
С 3 16 км 10/10 1050 м -4.0 -6.8 81 -10 -10 991.7
С 3 16 км 10/10 1050 м -4.0 -6.8 81 -10 -10 991.7
С 3 11 км слабый снег 10/10 990 м -4.1 -6.6 83 -10 -10 991.7
С 4 6 км слабый снег 10/10 480 м -4.0 -6.5 83 -10 -10 992.1
Местоположение метеостанции Ionia County Airport: широта 42.9380 долгота -85.0605 высота над уровнем моря 249 м.
В архиве по умолчанию представлена погода в Ионии за последние 1-2 суток. Обновление информации о фактической погоде в базе происходит ежечасно! Архивные данные за месяц целиком и за предыдущие месяцы Вы можете получить, выбрав интересующий диапазон дат из раскрывающегося списка и нажав кнопку "Ввод!".
Внимание! Архив погоды МЕТАР в базе сайта по станциям, не включенным в климатический монитор, хранится не более 60 дней. Нет смысла пытаться выбрать более раннюю дату.
*Определитесь, кто Вы:
Внимание! Время в таблицах - всемирное. Для получения местного времени необходимо прибавить поправку, которая равна ч.
Смотрите также архив погоды в соседних городах и на ближайших метеорологических станциях:
Партнеры нашего сайта:      
Пояснения к столбцам:
  • Ветер - указаны скорость ветра в м/с - средняя за 10 мин, порывы в срок и между сроками (в фигурных скобках) и направление, откуда дует ветер: С - северный,
  • СВ - северо-восточный, В - восточный, ЮВ - юго-восточный, Ю - южный, ЮЗ - юго-западный, З - западный, СЗ - северо-западный.
  • Видимость - горизонтальная дальность видимости в метрах или километрах. При видимости от 1 до 10 км при отсутствии осадков обычно наблюдается дымка, при ухудшении видимости до 1 км и менее - туман. В сухую погоду видимость может ухудшаться дымом, пылью или мглою.
  • Явления - указаны атмосферные явления, наблюдавшиеся в срок или в последний час перед сроком; фигурными скобками обозначены явления, наблюдавшиеся между сроками (за 1-3 часа до срока); квадратными скобками обозначены град или гололедные отложения с указанием их диаметра в мм.
  • Облачность - указаны через наклонную черту общая и нижняя облачность в баллах и высота нижней границы облаков в метрах; квадратными скобками обозначены формы облаков: Ci - перистые, Cs - перисто-слоистые, Cc - перисто-кучевые, Ac - высококучевые, As - высокослоистые, Sc - слоисто-кучевые, Ns - слоисто-дождевые, Cu - кучевые, Cb - кучево-дождевые. Подробнее классификацию облаков см. в Атласе облаков (PDF).
  • T - Температура воздуха - температура, измеренная на высоте 2 м над землей.
  • Td - Температура точки росы - температура, при понижении до которой содержащийся в воздухе водяной пар достигнет насыщения.
  • f - Относительная влажность воздуха - влажноcть воздуха, измеренная на высоте 2 м над землей.
  • Te - Эффективная температура - температура, которую ощущает одетый по сезону человек в тени. Характеристика душности погоды. При расчете учитывается влияние влажности воздуха и скорости ветра на теплоощущения человека.
  • Tes - Эффективная температура на солнце - температура, которую ощущает человек, с поправкой на солнечный нагрев. Характеристика знойности погоды. Зависит от высоты солнца над горизонтом, облачности и скорости ветра. Ночью, в пасмурную погоду, а также при ветре 12 м/с и более поправка равна нулю.
  • P - Атмосферное давление - приведенное к уровню моря атмосферное давление.
  • Po - Атмосферное давление - измеренное на уровне метеостанции атмосферное давление.
  • Tmin - Минимальная температура - минимум температуры воздуха на высоте 2 м над землей.
  • Tmax - Максимальная температура - максимум температуры воздуха на высоте 2 м над землей.
  • R - Количество осадков - Количество выпавших осадков за период времени, мм. При наведении курсора мыши на число - период времени, за который выпало указанное количество осадков.
  • R24 - Количество осадков - Количество выпавших осадков за 24 часа, мм.
  • S - Снежный покров - Высота снежного покрова, см. При наведении курсора мыши на число - состояние снежного покрова и степень покрытия местности в баллах.